Date String (YYYY-MM-DD hh:mm:ss) UTC,Instrument flags,Ambient pressure (hPa),Sample flow (lpm),Bypass flow (lpm),Sample temperature (°C),Ambient temperature (°C),ASC tube jacket temperature (°C),LED temperature (°C),Box temperature (°C),Sample RH (%),Span deviation,Mass concentration (μg/m³),Mass concentration (μg/m³),Mass concentration (μg/m³)
DateTimeUTC,F1_M11,P_M11,Q1_M11,Q2_M11,T1_M11,T2_M11,T3_M11,T4_M11,T5_M11,U1_M11,ZSPAN_M11,X0_M11,X2_M11,X1_M11
2023-05-29 00:00:00,,0827.7,5.00,0.00,29.4,27.9,00.0,37.7,31.1,25.9,0000.0,0008.18,0003.97,0003.12
2023-05-29 00:01:00,,0827.7,4.99,0.00,29.5,28.0,00.0,37.7,31.2,24.8,0000.0,0008.14,0003.96,0003.12
2023-05-29 00:02:00,,0827.8,5.00,0.00,29.5,28.1,00.0,37.8,31.2,24.5,0000.0,0008.15,0003.98,0003.13
2023-05-29 00:03:00,,0827.7,5.00,0.00,29.5,28.2,00.0,37.8,31.2,24.6,0000.0,0008.10,0003.96,0003.14
2023-05-29 00:04:00,,0827.7,5.01,0.00,29.5,28.2,00.0,37.8,31.3,24.3,0000.0,0007.86,0003.97,0003.13
2023-05-29 00:05:00,,0827.7,5.01,0.00,29.6,28.3,00.0,37.8,31.3,24.1,0000.0,0008.22,0003.97,0003.14
2023-05-29 00:06:00,,0827.7,5.00,0.00,29.6,28.1,00.0,37.8,31.3,24.1,0000.0,0008.83,0003.99,0003.14
2023-05-29 00:07:00,,0827.7,4.98,0.00,29.6,26.7,00.0,37.8,31.1,24.4,0000.0,0009.25,0003.98,0003.13
2023-05-29 00:08:00,,0827.7,5.01,0.00,29.5,25.8,00.0,37.7,31.0,24.3,0000.0,0009.18,0003.95,0003.12
2023-05-29 00:09:00,,0827.7,5.01,0.00,29.5,25.9,00.0,37.7,30.9,25.0,0000.0,0009.24,0003.98,0003.12
2023-05-29 00:10:00,,0827.7,4.99,0.00,29.4,26.1,00.0,37.7,30.9,25.3,0000.0,0009.11,0003.95,0003.11
2023-05-29 00:11:00,,0827.7,4.99,0.00,29.4,26.4,00.0,37.7,30.9,25.1,0000.0,0009.22,0003.92,0003.11
2023-05-29 00:12:00,,0827.7,5.00,0.00,29.4,26.8,00.0,37.7,30.9,24.9,0000.0,0009.67,0003.93,0003.11
2023-05-29 00:13:00,,0827.7,5.01,0.00,29.4,27.0,00.0,37.7,31.0,24.8,0000.0,0009.94,0003.94,0003.10
2023-05-29 00:14:00,,0827.7,5.01,0.00,29.4,27.3,00.0,37.7,31.0,24.8,0000.0,0010.04,0003.96,0003.10
2023-05-29 00:15:00,,0827.7,4.99,0.00,29.4,27.5,00.0,37.7,31.1,25.0,0000.0,0009.98,0003.96,0003.11
2023-05-29 00:16:00,,0827.7,4.99,0.00,29.4,27.7,00.0,37.7,31.1,25.0,0000.0,0009.57,0003.97,0003.11
2023-05-29 00:17:00,,0827.8,5.00,0.00,29.5,27.9,00.0,37.7,31.2,24.2,0000.0,0008.90,0003.94,0003.11
2023-05-29 00:18:00,,0827.8,5.00,0.00,29.5,28.0,00.0,37.8,31.2,23.8,0000.0,0008.90,0003.92,0003.11
2023-05-29 00:19:00,,0827.8,5.01,0.00,29.5,28.1,00.0,37.8,31.2,24.1,0000.0,0009.14,0003.94,0003.12
2023-05-29 00:20:00,,0827.8,5.00,0.00,29.5,28.2,00.0,37.8,31.3,24.1,0000.0,0009.04,0003.91,0003.11
2023-05-29 00:21:00,,0827.8,4.99,0.00,29.6,28.3,00.0,37.8,31.3,24.2,0000.0,0009.05,0003.93,0003.11
2023-05-29 00:22:00,,0827.8,4.98,0.00,29.6,28.4,00.0,37.8,31.3,24.3,0000.0,0008.90,0003.95,0003.10
2023-05-29 00:23:00,,0827.8,5.00,0.00,29.6,28.3,00.0,37.9,31.4,24.5,0000.0,0008.45,0003.91,0003.10
2023-05-29 00:24:00,,0827.8,5.01,0.00,29.6,26.9,00.0,37.8,31.1,24.5,0000.0,0008.06,0003.87,0003.10
2023-05-29 00:25:00,,0827.7,5.01,0.00,29.6,25.9,00.0,37.7,31.0,24.6,0000.0,0008.30,0003.83,0003.07
2023-05-29 00:26:00,,0827.7,5.01,0.00,29.5,25.9,00.0,37.7,30.9,24.6,0000.0,0008.39,0003.84,0003.05
2023-05-29 00:27:00,,0827.8,5.01,0.00,29.4,26.1,00.0,37.7,30.9,24.7,0000.0,0008.71,0003.93,0003.07
2023-05-29 00:28:00,,0827.8,4.99,0.00,29.4,26.4,00.0,37.7,30.9,24.8,0000.0,0009.04,0003.97,0003.08
2023-05-29 00:29:00,,0827.8,5.00,0.00,29.4,26.7,00.0,37.7,31.0,24.9,0000.0,0008.64,0003.98,0003.08
2023-05-29 00:30:00,,0827.9,5.00,0.00,29.4,27.0,00.0,37.7,31.0,25.2,0000.0,0008.39,0003.95,0003.09
2023-05-29 00:31:00,,0828.0,5.00,0.00,29.4,27.3,00.0,37.7,31.1,25.1,0000.0,0009.28,0003.95,0003.09
2023-05-29 00:32:00,,0828.0,5.00,0.00,29.4,27.5,00.0,37.7,31.1,24.5,0000.0,0009.73,0003.93,0003.09
2023-05-29 00:33:00,,0828.1,4.98,0.00,29.5,27.7,00.0,37.7,31.1,26.6,0000.0,0009.69,0003.91,0003.10
2023-05-29 00:34:00,,0828.1,4.99,0.00,29.5,27.9,00.0,37.8,31.2,27.9,0000.0,0009.74,0003.94,0003.10
2023-05-29 00:35:00,,0828.1,5.00,0.00,29.5,28.0,00.0,37.8,31.2,26.2,0000.0,0009.90,0004.01,0003.10
2023-05-29 00:36:00,,0828.0,5.00,0.00,29.5,28.1,00.0,37.8,31.3,26.2,0000.0,0009.76,0004.06,0003.10
2023-05-29 00:37:00,,0828.1,5.01,0.00,29.6,28.2,00.0,37.8,31.3,26.5,0000.0,0009.76,0004.04,0003.10
2023-05-29 00:38:00,,0828.1,5.01,0.00,29.6,28.3,00.0,37.8,31.3,25.7,0000.0,0009.57,0003.97,0003.10
2023-05-29 00:39:00,,0828.0,5.00,0.00,29.6,28.4,00.0,37.9,31.4,26.3,0000.0,0009.29,0003.94,0003.10
2023-05-29 00:40:00,,0827.9,5.00,0.00,29.7,28.4,00.0,37.9,31.4,25.5,0000.0,0009.22,0003.93,0003.10
2023-05-29 00:41:00,,0827.9,5.00,0.00,29.7,26.9,00.0,37.8,31.2,25.3,0000.0,0009.20,0003.94,0003.09
2023-05-29 00:42:00,,0827.7,5.01,0.00,29.6,25.9,00.0,37.7,31.1,25.3,0000.0,0008.60,0003.94,0003.09
2023-05-29 00:43:00,,0827.7,5.01,0.00,29.5,25.8,00.0,37.7,30.9,27.0,0000.0,0008.11,0003.93,0003.10
2023-05-29 00:44:00,,0827.5,5.01,0.00,29.5,26.1,00.0,37.7,30.9,27.8,0000.0,0008.29,0003.94,0003.10
2023-05-29 00:45:00,,0827.5,5.00,0.00,29.4,26.4,00.0,37.7,30.9,27.6,0000.0,0008.43,0003.97,0003.12
2023-05-29 00:46:00,,0827.4,5.00,0.00,29.4,26.7,00.0,37.7,31.0,23.8,0000.0,0008.37,0003.93,0003.11
2023-05-29 00:47:00,,0827.4,5.01,0.00,29.4,27.0,00.0,37.7,31.0,22.6,0000.0,0008.35,0003.92,0003.11
2023-05-29 00:48:00,,0827.4,4.99,0.00,29.4,27.3,00.0,37.8,31.1,23.7,0000.0,0008.47,0003.89,0003.10
2023-05-29 00:49:00,,0827.8,5.00,0.00,29.4,27.5,00.0,37.8,31.1,23.6,0000.0,0008.39,0003.87,0003.09
2023-05-29 00:50:00,,0827.5,5.00,0.00,29.5,27.7,00.0,37.8,31.1,24.4,0000.0,0008.38,0003.85,0003.08
2023-05-29 00:51:00,,0827.6,5.00,0.00,29.5,27.8,00.0,37.8,31.2,24.1,0000.0,0008.56,0003.87,0003.07
2023-05-29 00:52:00,,0827.6,5.00,0.00,29.5,27.9,00.0,37.8,31.2,25.4,0000.0,0009.34,0003.88,0003.05
2023-05-29 00:53:00,,0827.6,5.00,0.00,29.5,28.0,00.0,37.8,31.2,26.5,0000.0,0009.31,0003.87,0003.04
2023-05-29 00:54:00,,0827.7,5.00,0.00,29.6,28.1,00.0,37.8,31.3,24.6,0000.0,0009.11,0003.86,0003.04
2023-05-29 00:55:00,,0827.7,5.00,0.00,29.6,28.2,00.0,37.8,31.3,23.3,0000.0,0009.00,0003.87,0003.02
2023-05-29 00:56:00,,0827.7,5.00,0.00,29.6,28.3,00.0,37.9,31.3,24.4,0000.0,0009.01,0003.85,0003.01
2023-05-29 00:57:00,,0827.7,5.00,0.00,29.6,28.4,00.0,37.9,31.4,21.0,0000.0,0008.97,0003.82,0003.00
2023-05-29 00:58:00,,0827.7,4.99,0.00,29.7,27.9,00.0,37.9,31.3,20.4,0000.0,0009.01,0003.78,0002.99
2023-05-29 00:59:00,,0827.7,4.99,0.00,29.6,26.3,00.0,37.8,31.0,19.0,0000.0,0009.82,0003.79,0002.97
